Location: Poughquag
(41.6090°N, 73.6820°W)
Time: 02:49:50
(UTC-04:00)

Transit 2A - Pass Details

Date: 06 June 2020
Orbit: 592 x 967 km, 66.7° (Epoch: 06 July)

Event Time Altitude Azimuth Distance (km) Brightness Sun altitude
Rises 14:43:35 0° 274° (W) 3,173 9.5 60.3°
Reaches altitude 10° 14:47:30 10° 304° (NW) 2,349 8.9 59.6°
Maximum altitude 14:49:41 12° 328° (NNW) 2,240 8.6 59.3°
Drops below altitude 10° 14:51:57 10° 352° (N) 2,457 8.6 58.9°
Sets 14:56:17 0° 21° (NNE) 3,490 9.2 58.2°
